Doha, Qatar

11:02 PM +03 on March 30, 2017 (GMT +0300)
Doha International

Weather History for OTBD - December, 2013

Change the Weather History Date:

Sunday, December 8, 2013

  Actual Average Record
Temperature  
Mean Temperature 74 °F -  
Max Temperature 81 °F 74 °F 87 °F (2007)
Min Temperature 68 °F 58 °F 55 °F (2015)
Cooling Degree Days 10    
Growing Degree Days 24 (Base 50)    
Moisture  
Dew Point 58 °F    
Average Humidity 57    
Maximum Humidity 73    
Minimum Humidity 32    
Precipitation  
Precipitation 0.00 in 0.02 in - ()
Sea Level Pressure  
Sea Level Pressure 30.06 in    
Wind  
Wind Speed 7 mph ()    
Max Wind Speed 12 mph    
Max Gust Speed -    
Visibility 8.5 miles    
Events      
Averages and records for this station are not official NWS values.
T = Trace of Precipitation, MM = Missing Value Source: Averaged Metar Reports

Daily Weather History Graph

Daily Weather History Graph

Search for Another Location

Airport or City:

Trip Planner

Search our weather history database for the weather conditions in past years. The results will help you decide how hot, cold, wet, or windy it might be!

Date:

Astronomy

Dec. 08, 2013 Rise Set
Actual Time 6:07 AM +03 4:44 PM +03
Civil Twilight 5:42 AM +03 5:09 PM +03
Nautical Twilight 5:13 AM +03 5:37 PM +03
Astronomical Twilight 4:45 AM +03 6:05 PM +03
Moon 10:38 AM +03 (12/8) 10:39 PM +03 (12/8)
Length of Visible Light 11h 27m
Length of Day
10h 37m
Waxing Crescent, 36% of the Moon is Illuminated
Dec 8
Waxing Crescent
Dec 9
First Quarter
Dec 17
Full
Dec 25
Last Quarter
Jan 1
New

Hourly Weather History & Observations

Time (+03) Temp. Heat Index Dew Point Humidity Pressure Visibility Wind Dir Wind Speed Gust Speed Precip Events Conditions
12:00 AM 72 °F - 58 °F 52% 30.09 in 9 mi NNW 8.1 mph - -  
12:00 AM 71.6 °F - 57.2 °F 60% 30.06 in - NNW 8.1 mph - N/A   Clear
1:00 AM 71.6 °F - 59.0 °F 64% 30.09 in - NNW 8.1 mph - N/A   Clear
2:00 AM 69.8 °F - 59.0 °F 68% 30.06 in - NW 6.9 mph - N/A   Clear
3:00 AM 70 °F - 59 °F 59% 30.07 in 7 mi NW 5.8 mph - -  
3:00 AM 69.8 °F - 59.0 °F 68% 30.06 in - NW 5.8 mph - N/A   Clear
3:30 AM 69.8 °F - 59.0 °F 68% 30.06 in - NW 6.9 mph - N/A   Clear
4:00 AM 69.8 °F - 59.0 °F 68% 30.06 in - NW 6.9 mph - N/A   Clear
4:30 AM 69.8 °F - 59.0 °F 68% 30.06 in - NW 6.9 mph - N/A   Clear
5:00 AM 69.8 °F - 59.0 °F 68% 30.06 in - NW 5.8 mph - N/A   Clear
6:00 AM 69 °F - 59 °F 61% 30.09 in 7 mi NW 6.9 mph - -  
6:00 AM 69.8 °F - 59.0 °F 68% 30.06 in - NW 6.9 mph - N/A   Clear
6:30 AM 69.8 °F - 59.0 °F 68% 30.06 in - WNW 6.9 mph - N/A   Clear
7:00 AM 69.8 °F - 59.0 °F 68% 30.09 in - WNW 8.1 mph - N/A   Clear
7:30 AM 71.6 °F - 59.0 °F 64% 30.09 in - NW 8.1 mph - N/A   Clear
8:00 AM 71.6 °F - 59.0 °F 64% 30.09 in - NW 8.1 mph - N/A   Clear
8:30 AM 73.4 °F - 59.0 °F 61% 30.12 in - NW 9.2 mph - N/A   Clear
9:00 AM 74 °F - 60 °F 52% 30.13 in 9 mi NW 10.4 mph - -  
9:00 AM 73.4 °F - 60.8 °F 65% 30.12 in - NW 10.4 mph - N/A   Clear
9:30 AM 75.2 °F - 59.0 °F 57% 30.12 in - NW 11.5 mph - N/A   Clear
10:00 AM 75.2 °F - 59.0 °F 57% 30.09 in - NW 11.5 mph - N/A   Clear
10:30 AM 77.0 °F - 59.0 °F 54% 30.09 in - NNW 11.5 mph - N/A   Clear
11:00 AM 77.0 °F - 57.2 °F 50% 30.09 in - NNW 10.4 mph - N/A   Clear
11:30 AM 78.8 °F - 57.2 °F 47% 30.06 in - NW 9.2 mph - N/A   Clear
12:00 PM 79 °F - 56 °F 34% 30.06 in 9 mi NW 8.1 mph - -  
12:00 PM 78.8 °F - 55.4 °F 44% 30.04 in - NW 8.1 mph - N/A   Clear
12:30 PM 80.6 °F 80.5 °F 55.4 °F 42% 30.04 in - NW 9.2 mph - N/A   Clear
1:00 PM 80.6 °F 80.5 °F 55.4 °F 42% 30.01 in - NNW 10.4 mph - N/A   Unknown
1:30 PM 80.6 °F 80.5 °F 55.4 °F 42% 30.01 in - NNW 9.2 mph - N/A   Clear
2:00 PM 80.6 °F 80.8 °F 57.2 °F 45% 30.01 in - NW 9.2 mph - N/A   Clear
3:00 PM 80 °F - 56 °F 32% 30.02 in 10 mi NNW 11.5 mph - -  
3:00 PM 80.6 °F 80.5 °F 55.4 °F 42% 30.01 in - NNW 11.5 mph - N/A   Clear
4:00 PM 78.8 °F - 55.4 °F 44% 30.01 in - NW 10.4 mph - N/A   Clear
5:00 PM 77.0 °F - 53.6 °F 44% 30.04 in - NW 10.4 mph - N/A   Clear
5:30 PM 75.2 °F - 53.6 °F 47% 30.04 in - NW 8.1 mph - N/A   Clear
6:00 PM 75 °F - 54 °F 37% 30.06 in 10 mi NW 9.2 mph - -  
6:00 PM 75.2 °F - 53.6 °F 47% 30.04 in - NW 9.2 mph - N/A   Clear
6:30 PM 73.4 °F - 55.4 °F 53% 30.04 in - NNW 10.4 mph - N/A   Clear
7:00 PM 73.4 °F - 55.4 °F 53% 30.06 in - NW 5.8 mph - N/A   Clear
7:30 PM 73.4 °F - 55.4 °F 53% 30.06 in - NNW 8.1 mph - N/A   Clear
8:00 PM 71.6 °F - 57.2 °F 60% 30.06 in - NW 5.8 mph - N/A   Clear
8:30 PM 71.6 °F - 60.8 °F 69% 30.06 in - NW 5.8 mph - N/A   Clear
9:00 PM 72 °F - 60 °F 57% 30.08 in 7 mi NW 6.9 mph - -  
9:00 PM 71.6 °F - 60.8 °F 69% 30.06 in - NW 6.9 mph - N/A   Clear
9:30 PM 71.6 °F - 60.8 °F 69% 30.06 in - NW 6.9 mph - N/A   Clear
10:00 PM 71.6 °F - 60.8 °F 69% 30.06 in - NW 6.9 mph - N/A   Clear
10:30 PM 69.8 °F - 59.0 °F 68% 30.06 in - NW 6.9 mph - N/A   Clear
11:00 PM 69.8 °F - 60.8 °F 73% 30.06 in - NW 6.9 mph - N/A   Clear
11:30 PM 69.8 °F - 60.8 °F 73% 30.06 in - NW 6.9 mph - N/A   Clear